This is the latest recevied weather packets stored in our database for station/object W8AN. If no packets are shown the sender has not sent any weather packets the latest 10 day(s).
| Time | Temp. | Humidity | Pressure | Rain* | Wind** | Luminosity | Snow |
|---|---|---|---|---|---|---|---|
| 1777764993 | 8.33° C | 47% | 4271.4 hPa | 0 mm | - | 29 W/m² | - |
| 1777764690 | 8.33° C | 45% | 4271.5 hPa | 0 mm | - | 44 W/m² | - |
| 1777764386 | 8.89° C | 45% | 4271.4 hPa | 0 mm | - | 57 W/m² | - |
| 1777764084 | 8.89° C | 45% | 4271.5 hPa | 0 mm | - | 76 W/m² | - |
| 1777763780 | 8.89° C | 49% | 4271.4 hPa | 0 mm | - | 72 W/m² | - |
| 1777763478 | 8.89° C | 43% | 4271.5 hPa | 0 mm | - | 96 W/m² | - |
| 1777763176 | 8.33° C | 46% | 4271.5 hPa | 0 mm | - | 55 W/m² | - |
| 1777762874 | 8.33° C | 44% | 4271.7 hPa | 0 mm | - | 68 W/m² | - |
| 1777762569 | 8.89° C | 46% | 4271.4 hPa | 0 mm | - | 84 W/m² | - |
| 1777762267 | 8.89° C | 46% | 4271.5 hPa | 0 mm | - | 133 W/m² | - |
| 1777761963 | 8.89° C | 45% | 4271.6 hPa | 0 mm | - | 115 W/m² | - |
| 1777761660 | 8.89° C | 46% | 4271.6 hPa | 0 mm | - | 131 W/m² | - |
| 1777761357 | 8.33° C | 47% | 4271.6 hPa | 0 mm | - | 102 W/m² | - |
| 1777761056 | 8.89° C | 43% | 4271.5 hPa | 0 mm | - | 117 W/m² | - |
| 1777760753 | 8.89° C | 45% | 4271.7 hPa | 0 mm | - | 137 W/m² | - |
| 1777760449 | 8.89° C | 48% | 4271.6 hPa | 0 mm | - | 161 W/m² | - |
| 1777760145 | 8.89° C | 44% | 4271.6 hPa | 0 mm | - | 161 W/m² | - |
| 1777759842 | 8.89° C | 47% | 4271.7 hPa | 0 mm | - | 148 W/m² | - |
| 1777759538 | 8.89° C | 48% | 4271.6 hPa | 0 mm | - | 152 W/m² | - |
| 1777759235 | 8.89° C | 45% | 4271.6 hPa | 0 mm | - | 146 W/m² | - |
| 1777758932 | 8.89° C | 46% | 4271.7 hPa | 0 mm | - | 183 W/m² | - |
| 1777758629 | 8.89° C | 47% | 4271.8 hPa | 0 mm | - | 161 W/m² | - |
| 1777758326 | 8.89° C | 46% | 4271.5 hPa | 0 mm | - | 143 W/m² | - |
| 1777758024 | 8.89° C | 46% | 4271.6 hPa | 0 mm | - | 146 W/m² | - |
| 1777757720 | 8.89° C | 46% | 4271.7 hPa | 0 mm | - | 166 W/m² | - |
* Rain latest hour (hover to see other rain measurements)
** Current wind speed in m/s (hover to see current wind gust speed)